Location: Béaulencourt
(50.0796°N, 2.8795°E)
Time: 23:37:25
(UTC+00:00)

Cosmos 1943 Rocket - Pass Details

Date: 20 January 2026
Orbit: 812 x 842 km, 71.0° (Epoch: 7 February)

Event Time Altitude Azimuth Distance (km) Brightness Sun altitude
Exits shadow 05:31:21 36° 260° (W) 1,264 2.6 -19.7°
Maximum altitude 05:33:04 48° 307° (NW) 1,056 2.3 -19.4°
Drops below altitude 10° 05:38:24 10° 21° (NNE) 2,414 4.7 -18.6°
Sets 05:40:56 0° 28° (NNE) 3,352 5.6 -18.2°
